| time (UTC) | temp C | wind direction | speed KPH | gust KPH | rain 1hr cm | rain 24hr cm | rain mn cm | humidity % | barometer mb |
| 20260504042006 | 13 | 241 | 1.6 | 6.4 | 0.00 | 0.00 | 0.00 | 64 | 1005.6 |
| 20260504041505 | 13 | 211 | 0.0 | 8.0 | 0.00 | 0.00 | 0.00 | 63 | 1005.5 |
| 20260504041005 | 14 | 211 | 0.0 | 9.7 | 0.00 | 0.00 | 0.00 | 63 | 1005.5 |
| 20260504040006 | 14 | 227 | 0.0 | 8.0 | 0.00 | 0.00 | 0.00 | 62 | 1005.4 |
| 20260504035505 | 14 | 225 | 1.6 | 8.0 | 0.00 | 0.00 | 0.00 | 61 | 1005.5 |
| 20260504034505 | 14 | 220 | 1.6 | 6.4 | 0.00 | 0.00 | 0.00 | 61 | 1005.6 |
| 20260504033504 | 14 | 228 | 0.0 | 4.8 | 0.00 | 0.00 | 0.00 | 61 | 1005.8 |
| 20260504033006 | 14 | 236 | 0.0 | 4.8 | 0.00 | 0.00 | 0.00 | 61 | 1005.8 |
| 20260504032505 | 14 | 236 | 0.0 | 4.8 | 0.00 | 0.00 | 0.00 | 61 | 1005.8 |
| 20260504032006 | 14 | 240 | 0.0 | 3.2 | 0.00 | 0.00 | 0.00 | 61 | 1005.9 |
| 20260504031505 | 14 | 240 | 0.0 | 3.2 | 0.00 | 0.00 | 0.00 | 61 | 1006.0 |
| 20260504031005 | 14 | 227 | 0.0 | 3.2 | 0.00 | 0.00 | 0.00 | 60 | 1006.0 |
| 20260504025507 | 15 | 230 | 0.0 | 4.8 | 0.00 | 0.00 | 0.00 | 60 | 1006.0 |
| 20260504025006 | 15 | 230 | 0.0 | 4.8 | 0.00 | 0.00 | 0.00 | 59 | 1006.1 |
| 20260504024505 | 15 | 230 | 0.0 | 3.2 | 0.00 | 0.00 | 0.00 | 59 | 1006.1 |
| 20260504024005 | 15 | 229 | 0.0 | 9.7 | 0.00 | 0.00 | 0.00 | 59 | 1006.0 |
| 20260504023505 | 15 | 227 | 0.0 | 9.7 | 0.00 | 0.00 | 0.00 | 58 | 1006.0 |
| 20260504023006 | 15 | 211 | 0.0 | 3.2 | 0.00 | 0.00 | 0.00 | 58 | 1006.0 |
| 20260504022506 | 15 | 211 | 0.0 | 3.2 | 0.00 | 0.00 | 0.00 | 57 | 1006.0 |
| 20260504022006 | 15 | 211 | 0.0 | 3.2 | 0.00 | 0.00 | 0.00 | 57 | 1006.0 |
| 20260504021505 | 15 | 211 | 0.0 | 4.8 | 0.00 | 0.00 | 0.00 | 57 | 1005.9 |
| 20260504021005 | 16 | 211 | 0.0 | 4.8 | 0.00 | 0.00 | 0.00 | 56 | 1005.9 |
| 20260504020505 | 16 | 228 | 0.0 | 3.2 | 0.00 | 0.00 | 0.00 | 56 | 1005.8 |
| 20260504015504 | 16 | 229 | 1.6 | 8.0 | 0.00 | 0.00 | 0.00 | 56 | 1005.7 |
| 20260504015005 | 16 | 229 | 1.6 | 8.0 | 0.00 | 0.00 | 0.00 | 55 | 1005.7 |
| 20260504014505 | 16 | 236 | 1.6 | 11.3 | 0.00 | 0.00 | 0.00 | 54 | 1005.5 |
| 20260504014006 | 16 | 229 | 1.6 | 11.3 | 0.00 | 0.00 | 0.00 | 55 | 1005.6 |
| 20260504013505 | 16 | 253 | 0.0 | 8.0 | 0.00 | 0.00 | 0.00 | 54 | 1005.5 |
| 20260504013005 | 16 | 229 | 1.6 | 6.4 | 0.00 | 0.00 | 0.00 | 54 | 1005.5 |
| 20260504012505 | 16 | 230 | 1.6 | 6.4 | 0.00 | 0.00 | 0.00 | 53 | 1005.5 |
| 20260504012004 | 16 | 263 | 1.6 | 8.0 | 0.00 | 0.00 | 0.00 | 53 | 1005.5 |
| 20260504011505 | 16 | 256 | 1.6 | 8.0 | 0.00 | 0.00 | 0.00 | 53 | 1005.5 |
| 20260504011005 | 17 | 225 | 1.6 | 6.4 | 0.00 | 0.00 | 0.00 | 52 | 1005.4 |
| 20260504010505 | 17 | 248 | 1.6 | 12.9 | 0.00 | 0.00 | 0.00 | 51 | 1005.4 |
| 20260504010007 | 17 | 237 | 3.2 | 12.9 | 0.00 | 0.00 | 0.00 | 51 | 1005.4 |
| 20260504005506 | 17 | 205 | 1.6 | 8.0 | 0.00 | 0.00 | 0.00 | 50 | 1005.4 |
| 20260504004505 | 17 | 198 | 0.0 | 9.7 | 0.00 | 0.00 | 0.00 | 49 | 1005.4 |
| 20260504004007 | 18 | 225 | 1.6 | 9.7 | 0.00 | 0.00 | 0.00 | 49 | 1005.5 |
| 20260504003504 | 18 | 213 | 1.6 | 8.0 | 0.00 | 0.00 | 0.00 | 48 | 1005.5 |
| 20260504003006 | 18 | 207 | 1.6 | 4.8 | 0.00 | 0.00 | 0.00 | 47 | 1005.6 |
| 20260504002007 | 18 | 232 | 1.6 | 8.0 | 0.00 | 0.00 | 0.00 | 46 | 1005.6 |
| 20260504001505 | 18 | 242 | 3.2 | 9.7 | 0.00 | 0.00 | 0.00 | 46 | 1005.5 |
| 20260504001008 | 18 | 211 | 3.2 | 11.3 | 0.00 | 0.00 | 0.00 | 45 | 1005.6 |
| 20260503235007 | 19 | 229 | 3.2 | 12.9 | 0.00 | 0.00 | 0.00 | 44 | 1005.5 |
| 20260503234506 | 19 | 270 | 3.2 | 12.9 | 0.00 | 0.00 | 0.00 | 44 | 1005.5 |
| 20260503234009 | 19 | 261 | 3.2 | 12.9 | 0.00 | 0.00 | 0.00 | 44 | 1005.5 |
| 20260503233506 | 19 | 277 | 3.2 | 12.9 | 0.00 | 0.00 | 0.00 | 44 | 1005.5 |
| 20260503233007 | 19 | 292 | 4.8 | 11.3 | 0.00 | 0.00 | 0.00 | 43 | 1005.5 |
| 20260503232506 | 19 | 218 | 4.8 | 12.9 | 0.00 | 0.00 | 0.00 | 43 | 1005.4 |
| 20260503232006 | 20 | 196 | 4.8 | 17.7 | 0.00 | 0.00 | 0.00 | 44 | 1005.5 |
| 20260503230508 | 20 | 214 | 4.8 | 17.7 | 0.00 | 0.00 | 0.00 | 42 | 1005.5 |
| 20260503230010 | 20 | 257 | 4.8 | 17.7 | 0.00 | 0.00 | 0.00 | 41 | 1005.6 |
| 20260503225509 | 20 | 288 | 4.8 | 12.9 | 0.00 | 0.00 | 0.00 | 42 | 1005.6 |
| 20260503225006 | 20 | 223 | 6.4 | 12.9 | 0.00 | 0.00 | 0.00 | 41 | 1005.7 |
| 20260503224505 | 20 | 210 | 4.8 | 19.3 | 0.00 | 0.00 | 0.00 | 40 | 1005.7 |
| 20260503224007 | 21 | 231 | 3.2 | 20.9 | 0.00 | 0.00 | 0.00 | 39 | 1005.7 |
| 20260503223504 | 21 | 200 | 3.2 | 16.1 | 0.00 | 0.00 | 0.00 | 41 | 1005.8 |
| 20260503223005 | 20 | 242 | 3.2 | 12.9 | 0.00 | 0.00 | 0.00 | 41 | 1005.8 |
| 20260503222007 | 20 | 252 | 1.6 | 19.3 | 0.00 | 0.00 | 0.00 | 40 | 1005.8 |
| 20260503221506 | 20 | 209 | 3.2 | 19.3 | 0.00 | 0.00 | 0.00 | 41 | 1005.9 |
| 20260503221011 | 20 | 225 | 3.2 | 16.1 | 0.00 | 0.00 | 0.00 | 43 | 1005.9 |
| 20260503220505 | 20 | 206 | 3.2 | 9.7 | 0.00 | 0.00 | 0.00 | 41 | 1006.0 |
| 20260503220007 | 19 | 240 | 3.2 | 12.9 | 0.00 | 0.00 | 0.00 | 41 | 1006.1 |
| 20260503215504 | 18 | 206 | 4.8 | 20.9 | 0.00 | 0.00 | 0.00 | 42 | 1006.0 |
| 20260503214506 | 20 | 186 | 4.8 | 14.5 | 0.00 | 0.00 | 0.00 | 41 | 1006.1 |
| 20260503214005 | 20 | 232 | 3.2 | 16.1 | 0.00 | 0.00 | 0.00 | 41 | 1006.2 |
| 20260503213506 | 20 | 219 | 3.2 | 29.0 | 0.00 | 0.00 | 0.00 | 40 | 1006.2 |
| 20260503213006 | 20 | 208 | 4.8 | 29.0 | 0.00 | 0.00 | 0.00 | 42 | 1006.4 |
| 20260503212505 | 19 | 205 | 3.2 | 22.5 | 0.00 | 0.00 | 0.00 | 41 | 1006.3 |
| 20260503211505 | 18 | 220 | 4.8 | 16.1 | 0.00 | 0.00 | 0.00 | 43 | 1006.7 |
| 20260503211004 | 18 | 287 | 4.8 | 17.7 | 0.00 | 0.00 | 0.00 | 41 | 1006.9 |
| 20260503210506 | 18 | 263 | 4.8 | 17.7 | 0.00 | 0.00 | 0.00 | 42 | 1007.0 |
| 20260503205504 | 19 | 215 | 6.4 | 24.1 | 0.00 | 0.00 | 0.00 | 39 | 1007.1 |
| 20260503205006 | 19 | 226 | 6.4 | 24.1 | 0.00 | 0.00 | 0.00 | 38 | 1007.2 |
| 20260503204505 | 19 | 242 | 6.4 | 19.3 | 0.00 | 0.00 | 0.00 | 40 | 1007.2 |
| 20260503204005 | 19 | 227 | 6.4 | 19.3 | 0.00 | 0.00 | 0.00 | 39 | 1007.3 |
| 20260503203007 | 20 | 210 | 6.4 | 22.5 | 0.00 | 0.00 | 0.00 | 38 | 1007.6 |
| 20260503202505 | 20 | 248 | 6.4 | 17.7 | 0.00 | 0.00 | 0.00 | 39 | 1007.5 |
| 20260503202006 | 20 | 193 | 6.4 | 19.3 | 0.00 | 0.00 | 0.00 | 40 | 1007.7 |
| 20260503201007 | 19 | 226 | 6.4 | 20.9 | 0.00 | 0.00 | 0.00 | 41 | 1007.7 |
| 20260503200504 | 18 | 173 | 6.4 | 19.3 | 0.00 | 0.00 | 0.00 | 40 | 1007.7 |
| 20260503195506 | 18 | 252 | 4.8 | 19.3 | 0.00 | 0.00 | 0.00 | 45 | 1007.8 |
| 20260503195010 | 18 | 225 | 4.8 | 14.5 | 0.00 | 0.00 | 0.00 | 45 | 1008.0 |
| 20260503194506 | 18 | 163 | 4.8 | 16.1 | 0.00 | 0.00 | 0.00 | 47 | 1008.0 |
| 20260503194008 | 17 | 220 | 3.2 | 16.1 | 0.00 | 0.00 | 0.00 | 49 | 1008.1 |
| 20260503193011 | 17 | 266 | 4.8 | 17.7 | 0.00 | 0.00 | 0.00 | 50 | 1008.3 |
| 20260503192506 | 17 | 151 | 4.8 | 17.7 | 0.00 | 0.00 | 0.00 | 48 | 1008.4 |
| 20260503192013 | 16 | 206 | 3.2 | 17.7 | 0.00 | 0.00 | 0.00 | 53 | 1008.4 |
| 20260503191508 | 16 | 211 | 3.2 | 17.7 | 0.00 | 0.00 | 0.00 | 54 | 1008.4 |
| 20260503190506 | 16 | 188 | 4.8 | 20.9 | 0.00 | 0.00 | 0.00 | 53 | 1008.6 |
| 20260503185506 | 15 | 169 | 3.2 | 16.1 | 0.00 | 0.00 | 0.00 | 57 | 1008.7 |
| 20260503185005 | 15 | 155 | 3.2 | 14.5 | 0.00 | 0.00 | 0.00 | 56 | 1008.8 |
| 20260503184505 | 15 | 236 | 3.2 | 14.5 | 0.00 | 0.00 | 0.00 | 58 | 1009.1 |
| 20260503184007 | 15 | 204 | 3.2 | 14.5 | 0.00 | 0.00 | 0.00 | 60 | 1009.2 |
| 20260503183506 | 14 | 190 | 3.2 | 11.3 | 0.00 | 0.00 | 0.00 | 60 | 1009.5 |
| 20260503182506 | 13 | 224 | 1.6 | 16.1 | 0.00 | 0.00 | 0.00 | 64 | 1009.5 |
| 20260503182008 | 13 | 213 | 1.6 | 16.1 | 0.00 | 0.00 | 0.00 | 64 | 1009.6 |
| 20260503181506 | 12 | 247 | 1.6 | 9.7 | 0.00 | 0.00 | 0.00 | 66 | 1009.7 |
| 20260503181008 | 12 | 222 | 3.2 | 11.3 | 0.00 | 0.00 | 0.00 | 63 | 1009.9 |
| 20260503180506 | 12 | 178 | 3.2 | 9.7 | 0.00 | 0.00 | 0.00 | 67 | 1010.0 |
| 20260503180005 | 12 | 219 | 1.6 | 11.3 | 0.00 | 0.00 | 0.00 | 68 | 1010.1 |
| 20260503175506 | 12 | 215 | 0.0 | 4.8 | 0.00 | 0.00 | 0.00 | 70 | 1010.1 |
| 20260503175005 | 11 | 155 | 1.6 | 4.8 | 0.00 | 0.00 | 0.00 | 71 | 1010.2 |
| 20260503174505 | 11 | 227 | 1.6 | 4.8 | 0.00 | 0.00 | 0.00 | 73 | 1010.6 |
| 20260503174006 | 11 | 313 | 1.6 | 4.8 | 0.00 | 0.00 | 0.00 | 74 | 1010.9 |
| 20260503173505 | 11 | 198 | 1.6 | 4.8 | 0.00 | 0.00 | 0.00 | 75 | 1011.1 |
| 20260503173007 | 10 | 221 | 1.6 | 6.4 | 0.00 | 0.00 | 0.00 | 75 | 1011.1 |
| 20260503172505 | 10 | 259 | 1.6 | 6.4 | 0.00 | 0.00 | 0.00 | 77 | 1011.2 |
| 20260503171504 | 10 | 242 | 1.6 | 9.7 | 0.00 | 0.00 | 0.00 | 77 | 1011.9 |
| 20260503171004 | 10 | 234 | 1.6 | 9.7 | 0.00 | 0.00 | 0.00 | 76 | 1011.8 |
| 20260503151006 | 12 | 291 | 3.2 | 14.5 | 0.00 | 0.00 | 0.00 | 57 | 1013.2 |
| 20260503150506 | 11 | 275 | 3.2 | 11.3 | 0.00 | 0.00 | 0.00 | 58 | 1013.2 |
| 20260503131004 | 8 | 227 | 1.6 | 12.9 | 0.00 | 0.00 | 0.00 | 62 | 1013.8 |
| 20260503090503 | 6 | 231 | 0.0 | 6.4 | 0.00 | 0.00 | 0.00 | 62 | 1014.0 |
| 20260503081505 | 6 | 210 | 0.0 | 0.0 | 0.00 | 0.00 | 0.00 | 60 | 1014.0 |
| 20260503081005 | 6 | 209 | 0.0 | 0.0 | 0.00 | 0.00 | 0.00 | 60 | 1014.0 |
| 20260503080504 | 6 | 211 | 0.0 | 0.0 | 0.00 | 0.00 | 0.00 | 60 | 1014.1 |
| 20260503072504 | 6 | 249 | 0.0 | 0.0 | 0.00 | 0.00 | 0.00 | 59 | 1014.2 |
| 20260503072005 | 6 | 249 | 0.0 | 0.0 | 0.00 | 0.00 | 0.00 | 60 | 1014.2 |
| 20260503071504 | 6 | 245 | 0.0 | 0.0 | 0.00 | 0.00 | 0.00 | 59 | 1014.3 |
| 20260503071005 | 6 | 245 | 0.0 | 0.0 | 0.00 | 0.00 | 0.00 | 59 | 1014.3 |
| 20260503070504 | 6 | 245 | 0.0 | 0.0 | 0.00 | 0.00 | 0.00 | 59 | 1014.3 |
| 20260503055005 | 6 | 242 | 0.0 | 0.0 | 0.00 | 0.00 | 0.00 | 58 | 1015.0 |
| 20260503054506 | 6 | 242 | 0.0 | 0.0 | 0.00 | 0.00 | 0.00 | 57 | 1015.0 |
| 20260503054008 | 6 | 242 | 0.0 | 0.0 | 0.00 | 0.00 | 0.00 | 57 | 1015.1 |
| 20260503053505 | 6 | 242 | 0.0 | 0.0 | 0.00 | 0.00 | 0.00 | 57 | 1015.2 |
| 20260503052504 | 6 | 244 | 0.0 | 0.0 | 0.00 | 0.00 | 0.00 | 57 | 1015.1 |
| 20260503052007 | 6 | 244 | 0.0 | 0.0 | 0.00 | 0.00 | 0.00 | 58 | 1015.3 |
| 20260503051507 | 6 | 244 | 0.0 | 0.0 | 0.00 | 0.00 | 0.00 | 57 | 1015.3 |
| 20260503050507 | 7 | 244 | 0.0 | 0.0 | 0.00 | 0.00 | 0.00 | 57 | 1015.3 |
| 20260503045505 | 7 | 244 | 0.0 | 0.0 | 0.00 | 0.00 | 0.00 | 57 | 1015.5 |
| 20260503045006 | 7 | 244 | 0.0 | 0.0 | 0.00 | 0.00 | 0.00 | 57 | 1015.5 |
| 20260503044004 | 7 | 244 | 0.0 | 0.0 | 0.00 | 0.00 | 0.00 | 57 | 1015.5 |
| 20260503043505 | 7 | 244 | 0.0 | 0.0 | 0.00 | 0.00 | 0.00 | 56 | 1015.4 |
| 20260503043005 | 7 | 244 | 0.0 | 0.0 | 0.00 | 0.00 | 0.00 | 55 | 1015.5 |